View from above orbital plane
|
View from above satellite
|
Ground track
|
The orbit data is extracted from the following two-line orbital elements,
1 31027U 99025BDV 22180.53472507 .00001675 00000-0 76612-3 0 9998
2 31027 98.9997 294.5566 0075386 42.2978 318.3978 14.21354262 36563
Epoch (UTC): | 29 June 2022 12:50:00 |
Eccentricity: | 0.0075386 |
inclination: | 98.9997° |
perigee height: | 766 km |
apogee height: | 875 km |
right ascension of ascending node: | 294.5566° |
argument of perigee: | 42.2978° |
revolutions per day: | 14.21354262 |
mean anomaly at epoch: | 318.3978° |
orbit number at epoch: | 3656 |
The dashed part of the orbit path shows where the satellite is in the earth's shadow,
|
|